Terminal Aerodrome Forecast
Issued by NWS Upton, NY

Home | Current Version | Previous Version | Text Only | Print | Product List | Glossary On
Versions: 1 2 3 4 5 6 7 8 9 10 11 12 13 14 15 16 17 18 19 20 21 22 23 24 25 26 27 28 29
168
FTUS41 KOKX 222321
TAFEWR
TAF
KEWR 222321Z 2300/2406 03006KT P6SM SCT050 BKN100
     FM230200 07005KT 5SM BR SCT008 BKN070 WS020/21030KT
      TEMPO 2302/2305 BKN008
     FM230900 14005KT 5SM -SHRA BR OVC008 WS020/21040KT
     FM231100 16007KT 3SM SHRA BR OVC008 WS020/20045KT
     FM231400 18013G22KT 3SM SHRA BR OVC010 WS020/20045KT
     FM231800 21013G21KT 4SM -SHRA BKN015 WS020/20045KT
     FM232000 24012G21KT P6SM VCSH BKN035
     FM232300 26011G19KT P6SM SCT070=

USA.gov is the U.S. government's official web portal to all federal, state and local government web resources and services.